[[{"header":{"parameterUnit":"m.s-1","parameterCategory":1,"la1":30.2991,"la2":30.254,"lo1":-89.0895,"lo2":-89.0444,"dy":0.0017,"dx":0.0017,"nx":28,"ny":28,"refTime":"2025-05-17T03:00:00:Z","depth":0,"parameterNumber":2,"parameterNumberName":"U-component_of_WINDS"},"data":[0,0,0,0,0,0,0,0,0,0,0,0,0,0,0,0,0,0,0,0,0,0,0,0,0,0,0,0,0,0,0,0,0,0,0,0,0,0,0,0,0,0,0,0,0,0,0,0,0,0,0,0,0,0,0,0,0,0,1.2663,1.2665,0,1.2857,1.286,1.2862,1.2896,1.2894,1.2893,1.2891,1.3095,1.3102,1.3109,0,0,0,0,0,0,0,0,0,0,0,0,0,1.2326,1.2332,1.2663,1.2665,1.2668,1.2857,1.286,1.2862,1.2896,1.2894,1.2892,1.289,1.3093,1.3101,1.3109,0,0,0,0,0,0,0,0,0,0,0,0,0,1.2491,1.2334,1.2663,1.2707,1.2713,1.2857,1.286,1.2863,1.2897,1.2894,1.2892,1.2889,1.309,1.31,1.3111,1.3224,0,0,1.3142,1.3147,0,0,0,0,0,0,0,0,1.2482,1.2504,1.2698,1.2705,1.2711,1.285,1.2816,1.2984,1.2897,1.2827,1.2891,1.2888,1.3016,1.3032,1.3074,1.3234,1.3243,1.3143,1.315,1.3154,1.3157,0,0,0,0,0,0,0,1.2471,1.2496,1.274,1.2701,1.2709,1.2719,1.274,1.2848,1.2933,1.2833,1.2836,1.2858,1.3019,1.3064,1.3079,1.3246,1.3143,1.3152,1.3159,1.3163,1.351,1.3512,0,0,0,0,0,0,1.245,1.2486,1.2734,1.2746,1.2588,1.2727,1.2751,1.2808,1.2932,1.2948,1.286,1.2859,1.3047,1.3067,1.3087,1.3229,1.3154,1.3164,1.317,1.3507,1.351,1.3513,0,0,0,0,0,0,1.2443,1.2472,1.2726,1.2617,1.265,1.2736,1.28,1.2813,1.2858,1.2952,1.2968,1.289,1.3046,1.3072,1.319,1.3237,1.3169,1.3178,1.3503,1.3508,1.3512,1.3514,0,0,0,0,0,0,1.2433,1.2469,1.2512,1.2617,1.2655,1.2825,1.2803,1.2819,1.2876,1.2876,1.2985,1.3001,1.3046,1.3174,1.32,1.325,1.3186,1.3499,1.3505,1.351,1.351,1.3518,1.3524,0,0,0,0,0,1.2421,1.2506,1.2514,1.2544,1.2711,1.2827,1.2849,1.2899,1.2879,1.2924,1.2985,1.2997,1.3227,1.3186,1.3215,1.3269,1.3497,1.3504,1.351,1.3507,1.3516,1.3524,0,0,0,0,0,0,1.2406,1.252,1.2531,1.2652,1.2729,1.2832,1.2891,1.2907,1.2993,1.299,1.3049,1.3073,1.3188,1.324,1.3192,1.3386,1.3361,1.3373,1.3348,1.3358,1.3365,1.3351,1.3195,0,0,0,0,0,1.2416,1.2499,1.2596,1.2693,1.2731,1.2804,1.2857,1.2888,1.2971,1.3004,1.3074,1.3155,1.3246,1.3304,1.3393,1.3517,1.3542,1.3569,1.3576,1.3581,1.3592,1.3663,1.3676,1.3535,1.3535,1.3535,0,0,1.2439,1.2512,1.2561,1.2692,1.2756,1.2842,1.2832,1.2923,1.2989,1.3019,1.3134,1.3188,1.3283,1.3405,1.3462,1.3452,1.3637,1.359,1.3593,1.3602,1.3671,1.3685,1.3696,1.354,1.3539,1.3538,0,0,1.2525,1.2588,1.2677,1.274,1.2836,1.2884,1.2905,1.3006,1.3042,1.3159,1.3183,1.3263,1.3417,1.3484,1.3538,1.365,1.3665,1.3677,1.3715,1.3784,1.3795,1.3805,1.3846,1.386,1.3687,1.3687,1.3687,0,1.2542,1.2672,1.2721,1.2812,1.287,1.2899,1.299,1.305,1.317,1.321,1.3197,1.3391,1.3457,1.3596,1.3623,1.3665,1.3693,1.3666,1.3789,1.38,1.381,1.385,1.3865,1.3688,1.3688,1.3688,1.3688,0,1.2689,1.2779,1.2839,1.2953,1.3018,1.3108,1.3172,1.3232,1.3257,1.3307,1.3426,1.3506,1.3611,1.3646,1.3672,1.3789,1.378,1.3777,1.3753,1.3824,1.3862,1.3878,1.3689,1.3689,1.3689,1.3689,0,0,1.2773,1.2912,1.2933,1.2986,1.3093,1.3165,1.3257,1.3359,1.341,1.3491,1.3572,1.3702,1.37,1.3761,1.3795,1.3855,1.394,1.3845,1.3848,1.3861,1.4075,1.4077,1.4094,1.395,1.3953,1.3955,1.4067,0,1.2873,1.3038,1.3084,1.3224,1.3308,1.3337,1.3418,1.3494,1.3542,1.3622,1.3677,1.3768,1.3758,1.3795,1.3856,1.3917,1.3984,1.3909,1.4027,1.4031,1.4004,1.4114,1.4117,1.4219,1.4083,1.4085,1.4087,0,1.3012,1.3096,1.3243,1.334,1.3378,1.3449,1.3547,1.3622,1.3709,1.3741,1.3809,1.3838,1.3937,1.3906,1.4044,1.3993,1.4044,1.4081,1.4086,1.4101,1.4064,1.4133,1.4253,1.4268,1.4111,1.4109,1.4107,0,1.306,1.3209,1.3317,1.3361,1.3477,1.3527,1.3578,1.3662,1.372,1.3806,1.3845,1.3941,1.3994,1.4069,1.4123,1.4095,1.4258,1.4231,1.4288,1.4287,1.4323,1.432,1.4454,1.4353,1.4352,1.4352,1.4352,0,1.3169,1.3258,1.334,1.3407,1.3509,1.3561,1.3661,1.3714,1.3788,1.3867,1.3897,1.3971,1.4037,1.412,1.4163,1.4273,1.4296,1.4326,1.4336,1.4324,1.432,1.436,1.4355,1.4356,1.4355,1.4354,1.4354,0,1.324,1.3298,1.3418,1.3517,1.3544,1.3615,1.3701,1.3768,1.3817,1.3916,1.3942,1.402,1.4119,1.418,1.4306,1.4335,1.4456,1.4463,1.4426,1.4432,1.4486,1.4481,1.4651,1.4677,1.4557,1.4558,1.4559,0,1.3306,1.3376,1.3482,1.3536,1.3587,1.3674,1.3733,1.3788,1.3849,1.3953,1.4007,1.4108,1.4191,1.4348,1.4417,1.4514,1.4525,1.4578,1.454,1.4525,1.4528,1.4524,1.4532,1.4585,1.4586,1.4587,1.4587,0,1.3418,1.3443,1.3527,1.3621,1.369,1.3768,1.3845,1.3887,1.3956,1.4023,1.4123,1.4188,1.4316,1.4416,1.4518,1.4573,1.4593,1.4598,1.4617,1.4606,1.4582,1.4598,1.4446,1.4595,1.4594,1.4593,1.4593,1.4593,1.349,1.3554,1.3638,1.3731,1.3794,1.3865,1.3933,1.399,1.4074,1.4182,1.4209,1.4315,1.4401,1.4541,1.4597,1.4682,1.4674,1.4701,1.4708,1.4714,1.4716,1.4567,1.47,1.47,1.47,1.47,1.47,0,1.3605,1.3661,1.3745,1.3851,1.3924,1.3934,1.4019,1.4081,1.4173,1.425,1.4331,1.4448,1.4545,1.4621,1.4721,1.4774,1.4786,1.4799,1.4797,1.4809,1.4716,1.4691,1.4788,1.4788,1.4788,1.4788,1.4788,1.4788,1.3673,1.3782,1.3817,1.3957,1.4013,1.4116,1.4164,1.423,1.4293,1.4421,1.4501,1.4549,1.4627,1.4733,1.4823,1.4843,1.4879,1.4891,1.4913,1.4825,1.4816,1.4807,1.4783,1.4898,1.4898,1.4999,1.5,1.5001]},{"header":{"parameterUnit":"m.s-1","parameterCategory":1,"la1":30.2991,"la2":30.254,"lo1":-89.0895,"lo2":-89.0444,"dy":0.0017,"dx":0.0017,"nx":28,"ny":28,"refTime":"2025-05-17T03:00:00:Z","depth":0,"parameterNumber":3,"parameterNumberName":"V-component_of_WINDS"},"data":[0,0,0,0,0,0,0,0,0,0,0,0,0,0,0,0,0,0,0,0,0,0,0,0,0,0,0,0,0,0,0,0,0,0,0,0,0,0,0,0,0,0,0,0,0,0,0,0,0,0,0,0,0,0,0,0,0,0,4.8624,4.8624,0,4.8701,4.8701,4.8702,4.8663,4.8661,4.8659,4.8657,4.873,4.8733,4.8737,0,0,0,0,0,0,0,0,0,0,0,0,0,4.8436,4.844,4.8623,4.8624,4.8625,4.87,4.8701,4.8703,4.8664,4.8661,4.8659,4.8656,4.8728,4.8733,4.8737,0,0,0,0,0,0,0,0,0,0,0,0,0,4.8516,4.8441,4.8623,4.8615,4.8615,4.87,4.8702,4.8703,4.8664,4.8661,4.8658,4.8655,4.8727,4.8732,4.8738,4.8833,0,0,4.8755,4.8758,0,0,0,0,0,0,0,0,4.8511,4.8522,4.8615,4.8616,4.8616,4.8669,4.8662,4.8746,4.8665,4.8645,4.8657,4.8654,4.8712,4.8718,4.8739,4.8837,4.884,4.8756,4.8759,4.8762,4.8763,0,0,0,0,0,0,0,4.8506,4.8519,4.8654,4.8617,4.8617,4.8606,4.8614,4.8678,4.8694,4.8647,4.8644,4.8654,4.8711,4.8734,4.8741,4.8841,4.8756,4.8761,4.8764,4.8767,4.9021,4.9024,0,0,0,0,0,0,4.8501,4.8515,4.8651,4.8656,4.8555,4.8611,4.862,4.8655,4.8693,4.8696,4.8657,4.8652,4.8725,4.8734,4.8743,4.8858,4.8762,4.8767,4.877,4.9018,4.9022,4.9025,0,0,0,0,0,0,4.8498,4.8514,4.8648,4.8585,4.8601,4.8618,4.8657,4.8658,4.8681,4.8701,4.8703,4.8677,4.8723,4.8735,4.8812,4.886,4.877,4.8775,4.9014,4.9019,4.9023,4.9088,0,0,0,0,0,0,4.8492,4.8513,4.8551,4.8586,4.8605,4.8718,4.866,4.8662,4.8692,4.8686,4.8721,4.8724,4.8722,4.8803,4.8817,4.8866,4.8779,4.9009,4.9016,4.9022,4.9082,4.9095,4.9106,0,0,0,0,0,4.8486,4.8564,4.8553,4.857,4.8653,4.8721,4.8731,4.873,4.8696,4.8733,4.8746,4.8722,4.8852,4.8812,4.8827,4.8878,4.9006,4.9014,4.9021,4.9076,4.9092,4.9106,0,0,0,0,0,0,4.8532,4.8569,4.8557,4.8649,4.8683,4.8714,4.8761,4.8746,4.8788,4.8781,4.8775,4.8783,4.8863,4.8878,4.8832,4.8972,4.8924,4.8935,4.896,4.8976,4.8987,4.8982,4.8784,0,0,0,0,0,4.8553,4.8608,4.8636,4.8715,4.8732,4.8744,4.8774,4.877,4.8803,4.8816,4.8834,4.8866,4.8914,4.8945,4.899,4.9083,4.909,4.9126,4.9138,4.9148,4.9157,4.9208,4.9224,4.905,4.905,4.905,0,0,4.8597,4.8624,4.8658,4.8725,4.875,4.8805,4.8756,4.8816,4.8856,4.8824,4.8899,4.8914,4.8948,4.9034,4.9072,4.9048,4.9207,4.9157,4.9165,4.9169,4.9218,4.9234,4.9249,4.9055,4.9054,4.9053,0,0,4.8705,4.8731,4.8801,4.8828,4.8867,4.8875,4.8891,4.8926,4.8935,4.901,4.8988,4.9034,4.9117,4.9143,4.9166,4.9285,4.9265,4.9299,4.9363,4.9412,4.9426,4.9438,4.9481,4.9496,4.9309,4.9309,4.9309,0,4.8754,4.8838,4.8837,4.89,4.893,4.8906,4.8975,4.9,4.9052,4.9072,4.9045,4.9149,4.917,4.9262,4.9291,4.9311,4.9329,4.9296,4.9424,4.9437,4.9448,4.9489,4.9505,4.9313,4.9313,4.9312,4.9312,0,4.8897,4.8955,4.9006,4.906,4.9095,4.916,4.9167,4.9202,4.9195,4.9205,4.9282,4.9306,4.9357,4.9378,4.937,4.9469,4.9453,4.9425,4.9376,4.9469,4.9507,4.9522,4.9319,4.9317,4.9316,4.9315,0,0,4.9036,4.909,4.9108,4.9133,4.9175,4.9219,4.9283,4.9334,4.9365,4.9401,4.9453,4.9524,4.9499,4.9526,4.9521,4.9565,4.9658,4.9532,4.9532,4.9555,4.9768,4.979,4.9808,4.9645,4.9648,4.965,4.9766,0,4.9148,4.9263,4.9264,4.9369,4.9423,4.9401,4.9456,4.9487,4.9498,4.9543,4.9553,4.9604,4.9567,4.9584,4.9626,4.9638,4.9701,4.9629,4.9693,4.9695,4.9686,4.9828,4.985,4.9958,4.978,4.9783,4.9785,0,4.9295,4.9339,4.945,4.9486,4.9508,4.9558,4.9606,4.965,4.9684,4.9688,4.9719,4.9708,4.9771,4.972,4.9806,4.9757,4.9783,4.9793,4.9797,4.9803,4.9746,4.9839,4.9993,5.0009,4.9808,4.9806,4.9805,0,4.9387,4.9473,4.9551,4.9572,4.9616,4.9652,4.9671,4.9702,4.9733,4.9773,4.9793,4.9839,4.9865,4.99,4.9901,4.9863,4.9988,4.9937,4.9993,4.9993,5.0021,5.0019,5.0182,5.0036,5.0036,5.0035,5.0035,0,4.9512,4.9581,4.9594,4.9642,4.9718,4.9717,4.9791,4.9807,4.9835,4.9884,4.9867,4.9913,4.9911,4.9957,4.9957,5.0029,5.004,5.0045,5.0044,5.0047,5.0047,5.0064,5.0057,5.004,5.0039,5.0038,5.0037,0,4.9628,4.9639,4.9723,4.9758,4.9768,4.9823,4.9851,4.9896,4.9905,4.9968,4.9982,4.9996,5.0049,5.0054,5.0114,5.0115,5.0202,5.0192,5.0192,5.019,5.0246,5.0241,5.0427,5.0451,5.0289,5.029,5.0291,0,4.9708,4.9761,4.9803,4.9836,4.9858,4.9911,4.9944,4.9944,4.9978,5.0022,5.0061,5.0113,5.0155,5.0241,5.0255,5.0302,5.0294,5.0356,5.0301,5.0302,5.0296,5.0293,5.0298,5.0366,5.0368,5.037,5.0371,0,4.985,4.9853,4.9902,4.9953,4.9993,5.0032,5.0069,5.0096,5.0101,5.014,5.0196,5.0229,5.0293,5.0344,5.039,5.0407,5.039,5.0388,5.0404,5.0408,5.0405,5.0408,5.0222,5.0384,5.0383,5.0382,5.0381,5.038,4.9951,4.9997,5.0034,5.0089,5.0118,5.0153,5.0197,5.0213,5.026,5.0314,5.0311,5.0373,5.0404,5.0465,5.0485,5.0532,5.0511,5.0533,5.0539,5.0545,5.0552,5.0397,5.054,5.054,5.054,5.0539,5.0539,0,5.0092,5.0115,5.0166,5.022,5.0262,5.0245,5.0284,5.0321,5.0377,5.0409,5.0452,5.0516,5.0566,5.0584,5.0633,5.0667,5.066,5.068,5.0678,5.0682,5.0567,5.0549,5.0685,5.0685,5.0684,5.0684,5.0684,5.0684,5.017,5.0249,5.0256,5.0348,5.0369,5.0433,5.0457,5.0489,5.0515,5.0588,5.0631,5.0644,5.067,5.0721,5.0765,5.0769,5.0788,5.0811,5.0812,5.0704,5.069,5.0676,5.0659,5.0815,5.0815,5.0923,5.0924,5.0925]}]]